timestamp,wind_dir_avg,wind_spd_avg,wind_spd_max_dir,wind_spd_gust,battery_voltage,lat,long
2022-08-05 00:04:00+00:00,215.0,8.25,214.0,9.45,12.73,47.59359,-54.27349
2022-08-05 00:14:00+00:00,216.0,7.26,222.0,8.39,12.41,47.59359,-54.27349
2022-08-05 00:24:00+00:00,214.0,8.27,213.0,9.15,12.41,47.59359,-54.27349
2022-08-05 00:34:00+00:00,225.0,7.94,229.0,8.88,12.41,47.59359,-54.27349
2022-08-05 00:44:00+00:00,215.0,6.04,217.0,6.98,12.41,47.59359,-54.27349
2022-08-05 00:54:00+00:00,225.0,5.8,231.0,6.54,12.41,47.59359,-54.27349
2022-08-05 01:04:00+00:00,228.0,5.7,228.0,6.12,12.41,47.59359,-54.27349
2022-08-05 01:14:01+00:00,228.0,4.15,226.0,4.75,12.41,47.59359,-54.27349
2022-08-05 01:24:01+00:00,224.0,4.32,233.0,5.49,12.41,47.59359,-54.27349
2022-08-05 01:34:01+00:00,231.0,4.54,229.0,5.08,12.41,47.59359,-54.27349
2022-08-05 01:44:01+00:00,221.0,5.07,229.0,5.88,12.41,47.59359,-54.27349
2022-08-05 01:54:01+00:00,234.0,5.79,243.0,7.15,12.41,47.59359,-54.27349
2022-08-05 02:04:01+00:00,223.0,4.9,237.0,6.67,12.41,47.59359,-54.27349
2022-08-05 02:14:00+00:00,222.0,6.58,229.0,7.48,12.41,47.59359,-54.27349
2022-08-05 02:24:00+00:00,217.0,5.4,228.0,6.24,12.41,47.59359,-54.27349
2022-08-05 02:34:00+00:00,218.0,4.64,219.0,5.16,12.41,47.59359,-54.27349
2022-08-05 02:44:00+00:00,212.0,4.36,213.0,4.91,12.41,47.59359,-54.27349
2022-08-05 02:54:00+00:00,213.0,4.73,211.0,5.26,12.41,47.59359,-54.27349
2022-08-05 03:04:00+00:00,219.0,5.82,220.0,6.5,12.41,47.59359,-54.27349
2022-08-05 03:14:00+00:00,220.0,5.29,221.0,6.09,12.41,47.59359,-54.27349
2022-08-05 03:24:00+00:00,213.0,5.41,214.0,6.14,12.41,47.59359,-54.27349
2022-08-05 03:34:00+00:00,223.0,5.55,217.0,6.2,12.41,47.59359,-54.27349
2022-08-05 03:44:00+00:00,223.0,4.76,220.0,5.59,12.41,47.59359,-54.27349
2022-08-05 03:54:00+00:00,221.0,4.58,221.0,5.58,12.41,47.59359,-54.27349
2022-08-05 04:04:00+00:00,216.0,4.29,220.0,4.84,12.41,47.59359,-54.27349
2022-08-05 04:14:00+00:00,201.0,4.14,221.0,5.39,12.41,47.59359,-54.27349
2022-08-05 04:24:00+00:00,212.0,5.33,222.0,6.76,12.41,47.59359,-54.27349
2022-08-05 04:34:00+00:00,213.0,5.72,214.0,6.16,12.41,47.59359,-54.27349
2022-08-05 04:44:00+00:00,212.0,5.14,214.0,5.64,12.41,47.59359,-54.27349
2022-08-05 04:54:00+00:00,219.0,5.02,220.0,5.41,12.41,47.59359,-54.27349
2022-08-05 05:04:00+00:00,221.0,5.06,220.0,5.72,12.41,47.59359,-54.27349
2022-08-05 05:14:00+00:00,228.0,4.53,233.0,5.23,12.41,47.59359,-54.27349
2022-08-05 05:24:00+00:00,222.0,3.82,223.0,4.92,12.41,47.59359,-54.27349
2022-08-05 05:34:00+00:00,232.0,4.61,232.0,5.09,12.41,47.59359,-54.27349
2022-08-05 05:44:00+00:00,238.0,3.82,235.0,4.23,12.41,47.59359,-54.27349
2022-08-05 05:54:00+00:00,259.0,4.59,261.0,4.97,12.41,47.59359,-54.27349
2022-08-05 06:04:00+00:00,259.0,4.66,256.0,5.23,12.41,47.59359,-54.27349
2022-08-05 06:14:00+00:00,248.0,4.36,243.0,5.21,12.41,47.59359,-54.27349
2022-08-05 06:24:00+00:00,238.0,4.11,234.0,4.98,12.41,47.59359,-54.27349
2022-08-05 06:34:00+00:00,243.0,4.26,240.0,4.75,12.41,47.59359,-54.27349
2022-08-05 06:44:00+00:00,243.0,4.15,245.0,4.43,12.41,47.59359,-54.27349
2022-08-05 06:54:00+00:00,237.0,3.45,238.0,3.81,12.41,47.59359,-54.27349
2022-08-05 07:04:00+00:00,243.0,4.49,240.0,4.76,12.41,47.59359,-54.27349
2022-08-05 07:14:00+00:00,232.0,4.14,236.0,4.85,12.33,47.59359,-54.27349
2022-08-05 07:24:00+00:00,229.0,4.51,220.0,5.04,12.33,47.59359,-54.27349
2022-08-05 07:34:00+00:00,225.0,4.3,219.0,4.85,12.33,47.59359,-54.27349
2022-08-05 07:44:00+00:00,227.0,4.54,231.0,5.45,12.33,47.59359,-54.27349
2022-08-05 07:54:00+00:00,219.0,4.03,230.0,4.78,12.33,47.59359,-54.27349
2022-08-05 08:04:00+00:00,216.0,5.19,214.0,5.83,12.33,47.59359,-54.27349
2022-08-05 08:14:01+00:00,220.0,5.2,221.0,5.73,12.33,47.59359,-54.27349
2022-08-05 08:24:01+00:00,211.0,5.75,212.0,6.48,12.33,47.59359,-54.27349
2022-08-05 08:34:01+00:00,228.0,5.05,226.0,5.54,12.33,47.59359,-54.27349
2022-08-05 08:44:01+00:00,225.0,4.13,229.0,4.56,12.33,47.59359,-54.27349
2022-08-05 08:54:01+00:00,232.0,4.86,236.0,5.43,12.33,47.59359,-54.27349
2022-08-05 09:04:01+00:00,220.0,4.54,216.0,5.41,12.33,47.59359,-54.27349
2022-08-05 09:14:01+00:00,230.0,4.39,231.0,4.96,12.25,47.59359,-54.27349
2022-08-05 09:24:01+00:00,232.0,4.94,226.0,5.74,12.25,47.59359,-54.27349
2022-08-05 09:34:01+00:00,229.0,4.51,233.0,5.05,12.25,47.59359,-54.27349
2022-08-05 09:44:01+00:00,222.0,5.95,214.0,6.73,12.25,47.59359,-54.27349
2022-08-05 09:54:01+00:00,212.0,6.05,213.0,6.86,12.25,47.59359,-54.27349
2022-08-05 10:04:01+00:00,227.0,5.79,221.0,6.61,12.25,47.59359,-54.27349
2022-08-05 10:14:01+00:00,224.0,5.35,223.0,6.38,12.89,47.59359,-54.27349
2022-08-05 10:24:01+00:00,226.0,4.66,228.0,5.49,12.89,47.59359,-54.27349
2022-08-05 10:34:01+00:00,222.0,5.26,227.0,6.31,12.89,47.59359,-54.27349
2022-08-05 10:44:01+00:00,227.0,4.88,229.0,6.06,12.89,47.59359,-54.27349
2022-08-05 10:54:01+00:00,230.0,4.92,241.0,5.9,12.89,47.59359,-54.27349
2022-08-05 11:04:01+00:00,233.0,5.65,233.0,7.96,12.89,47.59359,-54.27349
2022-08-05 11:14:00+00:00,230.0,5.01,233.0,6.1,12.97,47.59359,-54.27349
2022-08-05 11:24:00+00:00,226.0,4.69,224.0,5.74,12.97,47.59359,-54.27349
2022-08-05 11:34:00+00:00,237.0,5.42,238.0,7.08,12.97,47.59359,-54.27349
2022-08-05 11:44:00+00:00,216.0,5.81,221.0,6.31,12.97,47.59359,-54.27349
2022-08-05 11:54:00+00:00,216.0,6.49,216.0,7.33,12.97,47.59359,-54.27349
2022-08-05 12:04:00+00:00,215.0,7.56,217.0,8.5,12.97,47.59359,-54.27349
2022-08-05 12:14:01+00:00,212.0,7.63,214.0,8.59,13.53,47.59359,-54.27349
2022-08-05 12:24:01+00:00,209.0,7.37,210.0,8.13,13.53,47.59359,-54.27349
2022-08-05 12:34:01+00:00,213.0,7.41,216.0,8.67,13.53,47.59359,-54.27349
2022-08-05 12:44:01+00:00,207.0,7.3,206.0,8.02,13.53,47.59359,-54.27349
2022-08-05 12:54:01+00:00,208.0,8.18,213.0,8.79,13.53,47.59359,-54.27349
2022-08-05 13:04:01+00:00,206.0,8.04,205.0,8.63,13.53,47.59359,-54.27349
2022-08-05 13:14:00+00:00,204.0,7.93,203.0,8.55,13.68,47.59359,-54.27349
2022-08-05 13:24:00+00:00,204.0,8.25,205.0,9.14,13.68,47.59359,-54.27349
2022-08-05 13:34:00+00:00,203.0,8.12,204.0,9.03,13.68,47.59359,-54.27349
2022-08-05 13:44:00+00:00,208.0,9.45,209.0,10.44,13.68,47.59359,-54.27349
2022-08-05 13:54:00+00:00,213.0,9.69,213.0,10.44,13.68,47.59359,-54.27349
2022-08-05 14:04:00+00:00,207.0,9.74,210.0,10.46,13.68,47.59359,-54.27349
2022-08-05 14:14:00+00:00,209.0,9.6,211.0,10.66,13.84,47.59359,-54.27349
2022-08-05 14:24:00+00:00,210.0,9.53,211.0,10.58,13.84,47.59359,-54.27349
2022-08-05 14:34:00+00:00,209.0,8.5,218.0,9.81,13.84,47.59359,-54.27349
2022-08-05 14:44:00+00:00,214.0,9.05,213.0,10.08,13.84,47.59359,-54.27349
2022-08-05 14:54:00+00:00,214.0,9.25,212.0,10.34,13.84,47.59359,-54.27349
2022-08-05 15:04:00+00:00,213.0,8.46,218.0,9.34,13.84,47.59359,-54.27349
2022-08-05 15:14:00+00:00,209.0,8.3,211.0,9.97,13.92,47.59359,-54.27349
2022-08-05 15:24:00+00:00,216.0,7.35,219.0,8.18,13.92,47.59359,-54.27349
2022-08-05 15:34:00+00:00,215.0,7.96,219.0,9.48,13.92,47.59359,-54.27349
2022-08-05 15:44:00+00:00,219.0,7.59,227.0,9.26,13.92,47.59359,-54.27349
2022-08-05 15:54:00+00:00,217.0,7.96,210.0,9.41,13.92,47.59359,-54.27349
2022-08-05 16:04:00+00:00,216.0,9.28,212.0,11.43,13.92,47.59359,-54.27349
2022-08-05 16:14:01+00:00,216.0,10.75,217.0,12.73,13.76,47.59359,-54.27349
2022-08-05 16:24:01+00:00,215.0,10.67,218.0,12.06,13.76,47.59359,-54.27349
2022-08-05 16:34:01+00:00,214.0,9.3,211.0,10.57,13.76,47.59359,-54.27349
2022-08-05 16:44:01+00:00,210.0,10.98,210.0,13.2,13.76,47.59359,-54.27349
2022-08-05 16:54:01+00:00,208.0,11.1,210.0,12.52,13.76,47.59359,-54.27349
2022-08-05 17:04:01+00:00,210.0,10.17,213.0,11.23,13.76,47.59359,-54.27349
2022-08-05 17:14:00+00:00,210.0,9.59,209.0,11.33,13.92,47.59359,-54.27349
2022-08-05 17:24:00+00:00,206.0,10.81,204.0,12.12,13.92,47.59359,-54.27349
2022-08-05 17:34:00+00:00,206.0,10.43,209.0,12.24,13.92,47.59359,-54.27349
2022-08-05 17:44:00+00:00,210.0,11.62,211.0,12.85,13.92,47.59359,-54.27349
2022-08-05 17:54:00+00:00,211.0,10.83,214.0,12.6,13.92,47.59359,-54.27349
2022-08-05 18:04:00+00:00,209.0,12.32,211.0,13.39,13.92,47.59359,-54.27349
2022-08-05 18:14:01+00:00,210.0,11.35,210.0,12.32,13.92,47.59359,-54.27349
2022-08-05 18:24:01+00:00,208.0,10.61,208.0,11.86,13.92,47.59359,-54.27349
2022-08-05 18:34:01+00:00,205.0,11.16,204.0,12.55,13.92,47.59359,-54.27349
2022-08-05 18:44:01+00:00,205.0,10.11,214.0,11.52,13.92,47.59359,-54.27349
2022-08-05 18:54:01+00:00,209.0,10.75,203.0,12.61,13.92,47.59359,-54.27349
2022-08-05 19:04:01+00:00,210.0,11.97,212.0,13.01,13.92,47.59359,-54.27349
2022-08-05 19:14:01+00:00,210.0,11.81,209.0,13.04,13.68,47.59359,-54.27349
2022-08-05 19:24:01+00:00,208.0,10.88,206.0,12.14,13.68,47.59359,-54.27349
2022-08-05 19:34:01+00:00,203.0,11.66,205.0,12.81,13.68,47.59359,-54.27349
2022-08-05 19:44:01+00:00,203.0,11.07,204.0,12.36,13.68,47.59359,-54.27349
2022-08-05 19:54:01+00:00,203.0,10.73,203.0,12.2,13.68,47.59359,-54.27349
2022-08-05 20:04:01+00:00,210.0,10.99,214.0,12.75,13.68,47.59359,-54.27349
2022-08-05 20:14:00+00:00,207.0,10.87,211.0,12.07,13.68,47.59359,-54.27349
2022-08-05 20:24:00+00:00,206.0,9.22,208.0,10.45,13.68,47.59359,-54.27349
2022-08-05 20:34:00+00:00,207.0,9.46,208.0,11.54,13.68,47.59359,-54.27349
2022-08-05 20:44:00+00:00,206.0,9.26,206.0,10.14,13.68,47.59359,-54.27349
2022-08-05 20:54:00+00:00,207.0,10.0,210.0,10.83,13.68,47.59359,-54.27349
2022-08-05 21:04:00+00:00,207.0,10.64,211.0,11.65,13.68,47.59359,-54.27349
2022-08-05 21:14:00+00:00,207.0,9.15,209.0,10.07,13.6,47.59359,-54.27349
2022-08-05 21:24:00+00:00,207.0,9.2,210.0,10.42,13.6,47.59359,-54.27349
2022-08-05 21:34:00+00:00,203.0,9.09,202.0,9.98,13.6,47.59359,-54.27349
2022-08-05 21:44:00+00:00,208.0,7.88,205.0,9.04,13.6,47.59359,-54.27349
2022-08-05 21:54:00+00:00,206.0,8.97,210.0,10.04,13.6,47.59359,-54.27349
2022-08-05 22:04:00+00:00,214.0,8.38,209.0,9.32,13.6,47.59359,-54.27349
2022-08-05 22:14:00+00:00,213.0,7.36,212.0,8.14,13.29,47.59359,-54.27349
2022-08-05 22:24:00+00:00,211.0,7.39,208.0,8.17,13.29,47.59359,-54.27349
2022-08-05 22:34:00+00:00,208.0,7.61,209.0,8.88,13.29,47.59359,-54.27349
2022-08-05 22:44:00+00:00,212.0,8.06,211.0,9.33,13.29,47.59359,-54.27349
2022-08-05 22:54:00+00:00,212.0,8.5,211.0,9.48,13.29,47.59359,-54.27349
2022-08-05 23:04:00+00:00,211.0,9.48,215.0,10.39,13.29,47.59359,-54.27349
2022-08-05 23:14:01+00:00,211.0,8.66,213.0,10.04,12.81,47.59359,-54.27349
2022-08-05 23:24:01+00:00,209.0,8.04,209.0,9.24,12.81,47.59359,-54.27349
2022-08-05 23:34:01+00:00,212.0,7.79,213.0,8.5,12.81,47.59359,-54.27349
2022-08-05 23:44:01+00:00,213.0,8.24,213.0,9.07,12.81,47.59359,-54.27349
2022-08-05 23:54:01+00:00,219.0,7.56,218.0,8.53,12.81,47.59359,-54.27349
